Regional Weather Roundup
Issued by NWS Sioux Falls, SD

Home | Current Version | Previous Version | Text Only | Print | Product List | Glossary On
Versions: 1 2 3 4 5 6 7 8 9 10 11 12 13 14 15 16 17 18 19 20 21 22 23 24 25 26 27 28 29 30 31 32 33 34 35 36 37 38 39 40 41 42 43 44 45 46 47 48 49 50
000
ASUS43 KFSD 042110
RWRFSD

WEATHER ROUNDUP FOR SE SOUTH DAKOTA/SW MINNESOTA/NW IOWA
NATIONAL WEATHER SERVICE SIOUX FALLS SD
400 PM CDT FRI SEP 04 2015

NOTE: "FAIR" INDICATES FEW OR NO CLOUDS BELOW 12,000 FEET WITH NO
SIGNIFICANT WEATHER AND OR OBSTRUCTIONS TO VISIBILITY.


SDZ038>040-050-052>070-042200-
SOUTHEAST SOUTH DAKOTA

CITY           SKY/WX    TMP DP  RH WIND       PRES   REMARKS
BROOKINGS      FAIR      79  66  65 SE20G29   29.86R
CHAMBERLAIN    FAIR      89  67  47 S10       29.74F
HURON          FAIR      88  69  53 SE15G22   29.74F
MADISON        FAIR      79  72  78 SE16G25   29.84F
MITCHELL       FAIR      91  69  48 SE14G28   29.76F HX  96
SIOUX FALLS    PTSUNNY   82  71  69 SE16      29.85F
WINNER         FAIR      92  59  33 SW3       29.76F
YANKTON        FAIR      88  72  58 SE20      29.78F
$$

MNZ071-072-080-081-089-090-097-098-042200-
SOUTHWEST MINNESOTA

CITY           SKY/WX    TMP DP  RH WIND       PRES   REMARKS
FAIRMONT       FAIR      84  70  61 S13       29.91R
JACKSON        FAIR      82  72  69 S9        29.92S
LUVERNE        CLOUDY    77  70  78 E8        29.90S
MARSHALL       FAIR      81  66  61 S14       29.88S
MONTEVIDEO     FAIR      84  72  65 S9        29.86F
PIPESTONE      FAIR      75  70  83 SE9G16    29.89S
REDWOOD FALLS  FAIR      86  72  62 S12       29.86S
TRACY          FAIR      79  71  76 SW10      29.90R THUNDER
WINDOM         FAIR      82  68  61 S9        29.90S
WORTHINGTON    CLOUDY    75  70  83 CALM      29.93R
$$

IAZ001>003-012>014-020>022-031-032-NEZ013-014-SDZ071-042200-
NORTHWEST IOWA

CITY           SKY/WX    TMP DP  RH WIND       PRES   REMARKS
CHEROKEE       FAIR      83  75  75 S14       29.89F
DENISON        FAIR      82  73  74 MISG      29.90S
ESTHERVILLE    FAIR      82  72  71 S8        29.91F
LE MARS        FAIR      86  72  62 S15G24    29.86F
ORANGE CITY    FAIR      84  72  65 S13       29.87S
SHELDON        PTSUNNY   81  73  78 SE8       29.88S
SIOUX CITY     FAIR      87  71  58 S15G22    29.84F
SPENCER        FAIR      81  71  71 SE10      29.90F HAZE
STORM LAKE     FAIR      79  72  78 S9G15     29.92F
$$

ABBREVIATIONS USED IN REMARKS
   TC - TEMPERATURE IN CELSIUS
  WCI - WIND CHILL INDEX
   HX - HEAT INDEX
  VSB - VISIBILITY




USA.gov is the U.S. government's official web portal to all federal, state and local government web resources and services.